Regional Weather Roundup
Issued by NWS Upton, NY

Current Version | Previous Version | Text Only | Print | Product List | Glossary Off
Versions: 1 2 3 4 5 6 7 8 9 10 11 12 13 14 15 16 17 18 19 20 21 22 23 24 25 26 27 28 29 30 31 32 33 34 35 36 37 38 39 40 41 42 43 44 45 46 47 48 49 50
968 ASUS41 KOKX 300308 RWROKX REGIONAL WEATHER ROUNDUP NATIONAL WEATHER SERVICE NEW YORK NY 1100 PM EDT WED MAR 29 2017 NOTE: "FAIR" INDICATES FEW OR NO CLOUDS BELOW 12,000 FEET WITH NO SIGNIFICANT WEATHER AND/OR OBSTRUCTIONS TO VISIBILITY. NYZ071-072-176-178-NJZ106-104-300400- NEW YORK CITY METRO AREA CITY SKY/WX TMP DP RH WIND PRES REMARKS Central Park PTCLDY 44 23 43 NE16G23 30.25R Wall St Helipt CLEAR 46 27 46 NE10 30.24R LaGuardia APRT CLEAR 46 23 40 N17G26 30.23R Kennedy INTL PTCLDY 45 22 40 N20G26 30.23R Breezy Point N/A 45 N/A N/A N15G22 N/A Newark/Liberty PTCLDY 46 24 42 N17 30.23R Teterboro CLEAR 44 24 45 NE9 30.23R $$ NYZ177-179-078>081-300400- LONG ISLAND NEW YORK CITY SKY/WX TMP DP RH WIND PRES REMARKS Jones Beach N/A 43 N/A N/A N18G24 N/A Matinecock PT NOT AVBL Farmingdale PTCLDY 43 23 45 N15G22 30.21R MacArthur/ISP PTCLDY 43 25 49 N15G23 30.20R Shirley PTCLDY 42 26 53 N12G18 30.21R Westhampton MOCLDY 42 25 50 N8 30.22R East Hampton MOCLDY 41 28 59 N7 30.20R Montauk N/A 42 26 53 N13G21 30.19S $$ NYZ052-065-067-300400- HUDSON VALLEY CITY SKY/WX TMP DP RH WIND PRES REMARKS White Plains CLEAR 41 21 44 N16G24 30.21R Newburgh CLEAR 39 25 56 NE12 30.24R WCI 32 Montgomery PTCLDY 39 24 55 N6 30.22S WCI 35 Poughkeepsie CLEAR 39 21 48 N8 30.23S WCI 33 Albany PTCLDY 37 20 50 NW12 30.25S WCI 29 $$ NJZ001-105-106-008-010-013-015-019>022-104-300400- NEW JERSEY CITY SKY/WX TMP DP RH WIND PRES REMARKS Newark/Liberty PTCLDY 46 24 42 N17 30.23R Teterboro CLEAR 44 24 45 NE9 30.23R Caldwell PTCLDY 43 24 47 VRB3 30.24R Somerville CLEAR 45 24 43 N10G18 30.23R Linden N/A 46 23 40 N10G18 30.24R Sussex CLEAR 40 23 50 N6 30.23S Andover N/A 40 23 50 N8 30.24R WCI 34 Trenton CLEAR 45 25 45 N12 30.22R Millville CLEAR 49 30 48 N6 30.20R Atlantic City CLEAR 44 30 57 N7 30.20R Wrightstown CLEAR 43 27 52 N7 30.19R Toms River CLEAR 45 26 47 N7 30.22R Belmar CLEAR 46 25 43 NW8 30.23R $$ PAZ047>061-062-071-300400- EASTERN PENNSYLVANIA CITY SKY/WX TMP DP RH WIND PRES REMARKS Philadelphia CLEAR 49 25 39 N12 30.23R Allentown CLEAR 42 25 50 N12 30.25R Scranton CLEAR 38 25 59 NE12 30.24S WCI 30 $$ CTZ002-004>006-009-010-012-RIZ004-006-007-MAZ004-011-015-300400- SOUTHERN NEW ENGLAND IN CT CITY SKY/WX TMP DP RH WIND PRES REMARKS Bradley INTL PTCLDY 39 23 52 N7 30.22R WCI 34 Hartford CLEAR 41 23 48 N8 30.22R Danbury PTCLDY 39 22 50 N15G22 30.23R WCI 31 Wtrbury/Oxford CLEAR 37 19 48 N10G16 30.22R WCI 30 Bridgeport PTCLDY 44 21 40 N16G30 30.22R Meriden PTCLDY 42 22 44 NW8 30.22R New Haven PTCLDY 42 20 41 N8G18 30.22R Chester NOT AVBL Groton CLEAR 41 19 41 N17G25 30.19R Wilimantic CLEAR 41 21 44 N8G21 30.21R IN RI CITY SKY/WX TMP DP RH WIND PRES REMARKS Providence PTCLDY 40 20 44 N16G25 30.17R WCI 31 Block Island CLEAR 40 26 57 NW9 30.18R WCI 34 Westerly CLEAR 42 21 43 NW14G21 30.19R IN MA CITY SKY/WX TMP DP RH WIND PRES REMARKS Boston PTCLDY 39 24 55 NW15G23 30.16S WCI 31 Worcester CLEAR 33 20 58 NW12G20 30.15R WCI 24 Westfield CLEAR 37 23 56 W5 30.21S WCI 33 Provincetown CLEAR 39 30 70 NW21G28 30.12S WCI 29 Nantucket CLEAR 40 27 59 N18G26 30.10S WCI 31 $$ ANZ330-335-338-340-345-350-353-355-300400- COASTAL MARINE OBSERVATIONS STATION/POSITION TIME SKY/WX TEMP WIND PRES VSBY WAVE AIR SEA DIR/SP/G HT/PER (UTC) (F) (DEG/KT/KT) (MB) (MI) (FT/S) NY HARB ENTRANCE 0150 46 42 360/ 10/ 12 1022.4 2/16 20 S FIRE ISLAND 0150 45 43 10/ 17/ 21 1021.3 3/10 GREAT SOUTH BAY NOT AVBL 23 SSW MONTAUK P 0150 43 43 1021.6 4/ 4 15 E BARNEGAT LI 0230 44 N/A 3/10 HUDSON CANYON 0150 45 45 350/ 12/ 14 1021.3 3/15 KINGS POINT 0242 43 41 1023.3 EXECUTION ROCKS NOT AVBL CENTRAL LI SOUND 0230 43 10/ 14/ 19 N/A 1/ 2 EASTERN LI SOUND NOT AVBL ROBBINS REEF 0242 45 20/ 15/ 18 1023.5 $$ >>>>>>>>>>>>>>>>>>>>>>>>>>>> KEY <<<<<<<<<<<<<<<<<<<<<<<<<<< > < > SKY/WX - Sky Condition/Present Weather < > TMP - Temperature in Fahrenheit < > DP - Dew Point in Fahrenheit < > RH - Relative Humidity in Percent < > WIND - Direction (from) and Speed in MPH < > PRES - Mean Sea Level Pressure (inches of Hg) < > WCI - Wind Chill Index < > VSB - VISIBILITY IN MILES < > HX - HEAT INDEX < > TC - TEMPERATURE IN CELSIUS < > VRB - VARIABLE WIND DIRECTION < > < >>>>>>>>>>>>>>>>>>>>>>>>>>>> KEY <<<<<<<<<<<<<<<<<<<<<<<<<<<

USA.gov is the U.S. government's official web portal to all federal, state and local government web resources and services.